Theta_e
314 314 316 316 319 316 315 312 306 309 309 308 306 310 318 316 318 322 320 321 318 318 319 319 318 319 319 320 325 324 324 324 323 323 322 322 322 322 322 323 324 323 324 324 323
316 316 315 316 318 316 315 313 308 307 309 307 306 310 318 318 319 321 321 321 320 319 320 320 319 318 320 321 323 324 324 323 322 323 322 322 323 323 323 323 324 324 324 323 324
315 315 313 315 315 319 314 314 312 306 308 306 306 310 316 318 321 321 321 321 321 321 321 320 320 318 319 321 321 323 325 322 323 322 323 324 324 323 323 324 324 325 325 324 325
310 313 314 314 315 316 316 314 313 306 307 307 306 307 316 318 321 318 319 319 321 323 321 321 320 319 320 320 320 322 321 322 321 323 324 324 324 324 323 322 322 324 323 324 325
305 306 312 314 314 314 317 314 313 307 308 309 309 306 316 318 319 317 315 317 318 324 323 322 320 320 321 319 320 321 320 320 320 321 321 321 321 322 322 322 323 323 324 325 325
305 305 307 312 314 314 316 315 313 309 309 309 309 309 311 316 315 316 316 316 320 324 324 321 321 319 319 319 319 318 319 319 319 319 319 319 319 319 319 320 320 320 321 321 323
303 304 305 309 312 314 315 316 313 309 310 310 309 309 312 311 309 308 312 316 319 323 322 322 321 320 320 320 319 319 320 319 319 318 319 318 320 320 319 319 319 319 319 320 320
303 303 302 305 310 313 314 317 313 309 311 311 308 309 311 309 309 310 313 318 321 320 322 322 320 319 318 317 317 318 319 321 319 318 318 318 319 318 318 319 320 320 320 319 319
302 302 303 303 306 310 314 316 312 310 312 312 311 309 311 309 309 309 312 317 318 315 317 319 318 316 316 318 319 318 320 320 319 317 318 319 321 320 320 320 320 320 320 320 321
300 302 302 303 302 308 313 316 312 309 312 313 311 311 311 311 310 309 312 316 315 314 315 316 315 316 316 318 320 318 319 317 317 317 317 318 319 318 318 317 318 318 319 320 320
301 302 302 302 303 306 310 315 311 311 312 313 312 311 311 310 309 310 311 312 313 315 316 314 316 316 316 315 316 315 316 317 317 316 316 316 316 316 315 315 315 315 315 316 317
301 302 301 302 303 302 306 311 309 310 311 311 311 311 311 311 311 311 311 312 314 316 314 314 316 314 313 314 314 314 315 315 315 314 314 314 315 314 314 314 313 313 314 314 314
301 301 301 301 303 303 302 311 310 309 310 309 311 312 311 311 312 311 312 312 313 314 314 315 313 311 313 314 314 314 314 314 313 314 313 314 315 315 314 313 313 312 312 313 313
301 300 303 303 303 302 305 307 310 309 313 309 310 310 311 312 312 312 311 312 312 314 313 313 312 311 312 313 313 315 313 313 313 313 314 312 317 315 315 314 313 312 312 312 312
301 302 303 303 304 306 306 307 309 309 316 309 309 310 311 310 311 311 311 311 313 313 312 313 312 313 312 312 312 313 311 311 312 313 313 314 313 314 313 314 314 314 314 313 313
301 301 303 303 303 304 308 310 308 309 313 310 309 312 312 310 311 311 311 311 311 312 312 312 310 311 312 312 311 311 312 312 312 313 317 314 314 315 315 315 314 313 313 313 312
302 302 302 304 304 303 307 306 308 315 308 310 310 312 311 311 312 312 312 313 313 314 314 313 312 311 310 311 311 311 312 314 315 316 315 312 315 314 313 312 313 313 313 312 313
303 301 303 304 303 304 305 305 314 310 311 309 310 312 312 310 311 311 313 313 312 312 313 313 316 313 311 311 312 312 312 314 314 314 313 312 314 313 313 312 312 312 313 315 316
302 303 304 304 304 304 304 312 312 309 309 309 310 311 311 310 311 311 312 312 312 312 313 314 311 309 311 311 310 312 313 312 313 313 314 312 312 313 312 312 312 312 314 316 316
301 302 304 304 303 304 307 312 307 309 309 310 311 310 310 310 311 311 311 311 311 311 311 311 312 308 310 310 311 312 311 313 313 313 313 312 311 312 312 312 313 314 314 315 316
302 301 303 305 304 304 311 309 310 309 309 310 310 311 311 310 311 311 311 309 310 311 312 310 309 310 310 310 311 311 312 314 312 314 313 312 312 311 311 311 312 313 314 315 315
302 305 305 305 304 303 310 308 310 310 310 310 310 310 311 311 311 311 311 309 308 309 312 310 310 310 310 309 310 310 311 311 314 314 314 315 315 311 312 313 314 313 314 314 315
303 303 305 305 309 309 307 310 311 311 311 311 311 311 310 311 312 310 309 308 307 309 310 310 311 312 313 313 310 311 310 311 312 312 315 314 313 309 309 310 310 312 312 312 314
303 305 304 305 307 309 310 310 311 310 311 312 311 312 312 311 310 311 310 309 308 309 309 309 311 312 315 316 315 314 312 312 312 314 314 314 313 311 311 310 310 310 310 311 314
305 305 305 308 309 309 309 310 311 311 311 311 312 312 312 313 312 311 310 310 309 308 309 310 312 311 311 311 312 313 313 313 313 312 313 313 312 312 311 311 311 309 311 313 313
301 303 305 307 308 308 308 310 311 311 311 312 312 312 312 313 312 313 312 312 312 310 311 311 313 313 313 313 314 315 315 315 314 314 313 313 313 311 311 310 310 311 312 313 314
301 301 303 307 309 309 310 308 310 311 310 311 311 312 312 312 311 312 311 310 311 311 311 312 312 313 316 314 315 320 318 317 316 313 313 314 312 311 311 311 311 312 312 313 313
Wind_Speed
19 19 17 19 19 17 17 16 13 13 12 11 9 8 7 9 13 17 17 12 12 17 5 7 6 6 6 7 7 6 8 12 20 16 11 5 9 9 4 7 3 4 3 1 4
14 17 18 18 20 17 14 16 15 13 12 11 9 9 9 10 12 19 18 13 6 9 14 8 7 7 7 9 8 12 11 16 10 12 7 9 6 4 6 10 12 8 3 2 3
18 17 18 19 19 20 14 15 16 14 11 10 9 9 10 10 6 11 15 17 14 11 9 10 7 8 10 8 9 10 14 11 7 10 6 11 11 11 12 13 15 14 7 4 2
26 16 15 20 19 20 19 13 16 14 11 9 8 9 11 12 7 5 9 12 18 14 12 10 9 9 8 9 9 9 14 13 7 9 7 12 11 14 18 23 12 10 11 12 11
25 23 19 15 20 20 22 15 14 14 12 9 7 8 14 10 11 5 4 6 13 21 17 14 11 8 8 5 7 12 9 8 10 10 13 15 21 22 23 25 24 23 21 20 19
24 25 20 18 17 21 21 19 13 13 12 9 7 8 10 12 11 18 6 2 7 19 17 15 9 7 4 5 9 2 6 10 10 14 14 17 24 21 29 27 28 29 31 30 27
22 25 22 16 17 20 20 21 13 13 12 10 8 9 9 10 7 9 13 8 7 16 20 14 12 7 7 5 5 6 10 12 15 15 14 12 19 20 34 28 31 28 28 27 29
27 23 21 24 18 17 22 25 17 13 13 9 8 7 7 6 13 10 13 11 9 10 13 15 11 9 2 3 2 4 5 5 4 3 6 9 16 6 13 17 23 24 27 30 30
25 22 21 18 20 14 22 28 20 15 14 11 10 7 4 5 9 12 16 13 14 13 12 12 11 6 5 5 5 8 8 9 10 8 7 12 12 6 3 7 13 16 18 19 22
26 22 20 19 21 20 18 24 21 19 15 15 8 4 7 4 7 14 19 18 13 14 11 7 4 6 7 8 8 6 10 10 11 2 8 16 21 19 24 27 25 25 25 25 24
24 23 22 21 22 24 13 18 19 10 19 7 9 3 5 8 10 13 19 15 13 13 8 6 5 11 15 14 13 5 8 11 10 9 17 19 23 23 26 31 31 32 32 32 33
26 27 27 25 25 21 22 17 30 14 10 17 8 7 6 9 5 11 20 12 14 13 9 5 12 13 8 12 13 13 15 17 16 14 13 19 32 25 27 33 34 34 35 35 35
28 29 26 34 22 23 27 21 31 24 6 9 17 9 8 9 6 16 20 10 12 12 16 9 2 5 13 14 13 16 17 15 17 17 19 21 26 12 5 13 21 28 33 34 33
30 31 39 21 20 19 21 23 30 10 3 9 12 13 13 7 5 12 20 9 5 12 11 9 12 6 9 12 13 15 12 14 13 11 6 2 11 16 14 14 11 14 18 22 24
31 34 30 11 8 12 16 18 28 13 7 12 8 10 14 14 12 8 16 5 9 9 7 5 7 12 15 12 12 7 5 7 9 12 13 17 7 11 5 11 10 14 19 21 20
34 38 22 11 16 13 11 28 24 5 6 7 8 13 15 17 7 8 11 4 5 7 9 10 2 5 8 10 13 3 6 10 10 8 9 18 15 20 15 12 9 8 12 18 20
39 42 14 12 12 17 17 28 5 4 7 8 9 11 15 10 9 10 12 10 7 5 8 7 16 7 7 6 6 12 4 3 4 6 8 2 11 21 6 6 10 19 22 18 20
35 32 8 10 14 14 15 3 4 7 7 6 12 17 8 18 8 9 12 10 12 4 2 5 4 13 11 14 4 15 13 6 6 6 7 2 12 8 10 12 15 10 16 14 19
38 6 3 8 12 20 22 3 1 6 12 13 12 8 5 11 5 8 10 6 9 12 6 5 4 3 10 8 12 6 10 14 15 22 14 15 23 26 26 24 17 16 8 11 19
28 4 3 6 10 21 6 4 0 5 18 16 6 7 8 13 8 10 12 7 9 14 13 2 4 5 4 7 13 13 1 5 6 6 12 14 17 14 13 11 8 9 4 12 16
20 3 3 11 16 15 3 2 5 14 12 3 6 9 8 12 9 11 8 2 10 10 17 7 4 3 3 13 13 9 7 7 8 10 8 17 14 8 9 12 16 4 7 9 16
11 2 10 33 5 2 3 2 7 8 5 3 6 9 13 13 11 9 9 5 9 12 10 13 4 9 15 10 12 17 13 20 9 11 8 12 18 7 5 2 4 6 7 8 12
8 3 8 4 3 3 2 3 6 4 2 2 4 3 4 8 6 7 5 2 12 12 11 12 6 4 4 3 7 9 16 23 19 12 19 11 15 3 3 7 14 10 11 15 14
2 2 5 2 3 9 11 6 5 4 4 6 6 6 6 5 2 6 6 3 11 13 8 15 5 7 9 13 4 9 17 17 18 11 21 22 30 25 18 17 20 19 16 18 13
5 3 2 2 6 8 6 3 9 4 3 3 3 3 4 4 5 4 7 3 5 11 9 9 5 11 20 23 22 23 28 25 19 25 15 28 21 22 16 16 19 23 15 13 15
8 5 8 2 9 9 4 5 5 4 3 3 2 6 5 3 4 5 4 6 6 10 11 7 5 5 16 21 20 22 21 20 19 18 23 27 27 25 22 18 20 8 12 11 10
19 10 2 5 4 7 5 6 7 4 1 3 2 3 5 5 8 9 11 10 4 5 11 5 3 3 7 12 24 8 5 9 9 7 11 17 23 15 12 9 7 10 15 18 22
Wind_Direction
301 277 286 280 276 294 308 306 275 272 275 270 253 237 214 204 204 224 229 235 237 233 198 186 191 203 181 193 188 191 227 227 227 234 226 213 216 214 225 233 205 193 239 299 306
306 307 277 280 266 270 291 301 287 271 273 266 246 226 205 205 215 234 241 239 215 219 212 190 195 190 195 197 192 209 229 235 241 245 230 211 235 221 229 214 227 217 209 335 303
292 306 276 275 271 260 271 296 299 268 260 254 243 218 196 210 240 249 246 239 223 214 183 185 186 187 205 196 193 208 233 232 231 237 233 242 242 240 244 242 235 229 231 265 254
281 288 308 271 268 260 258 271 295 266 251 243 234 208 188 191 219 203 222 222 221 201 184 162 179 188 205 203 204 227 238 242 243 229 252 246 261 246 241 246 255 252 258 270 262
327 289 286 304 263 260 248 252 279 268 243 236 226 207 186 201 230 198 191 206 213 201 190 177 185 194 205 200 207 232 247 246 250 249 255 264 255 259 264 254 254 258 260 259 262
324 316 279 286 275 256 244 242 257 260 237 230 224 205 203 218 234 227 197 215 202 192 187 187 196 198 181 210 227 240 256 263 260 256 262 260 262 256 254 257 257 254 254 254 252
319 317 311 299 303 251 240 230 237 242 227 223 217 209 221 232 233 219 214 217 199 195 187 179 178 172 175 188 223 261 278 268 257 252 261 262 261 243 255 255 254 253 250 250 248
317 312 300 276 287 262 244 227 223 217 213 206 207 208 239 241 221 183 175 177 158 187 192 190 186 171 180 148 182 258 264 274 117 193 229 208 263 254 270 242 251 252 255 252 248
311 314 304 302 287 283 227 224 204 202 202 192 197 197 244 223 215 204 182 156 161 138 137 147 149 143 162 219 244 220 259 240 280 247 268 215 276 259 239 245 260 261 259 256 255
314 314 307 295 281 273 213 222 189 183 181 178 190 205 225 201 181 179 176 165 144 137 124 145 155 188 213 206 233 248 231 244 253 193 267 269 264 266 268 273 271 266 263 259 256
315 314 305 300 296 250 272 184 154 171 177 199 191 153 136 141 142 172 172 156 153 174 183 181 194 211 221 225 245 273 267 265 270 277 299 273 273 275 273 268 265 262 260 260 258
319 311 305 298 300 278 253 257 169 174 183 192 154 197 146 158 137 165 165 166 179 200 182 180 230 232 230 231 239 253 265 269 276 273 280 292 286 285 271 261 258 257 257 256 255
318 305 289 299 294 273 244 227 184 149 108 181 199 194 194 178 181 178 175 168 182 173 193 197 129 231 213 224 234 238 249 264 270 292 289 286 285 261 279 259 255 252 254 256 252
313 314 312 291 278 255 232 233 179 162 132 166 185 215 198 163 215 175 176 164 174 198 187 233 230 202 195 224 228 256 258 259 268 284 272 79 290 285 284 282 247 252 249 252 254
322 323 329 269 222 224 219 216 178 159 188 139 151 165 181 178 138 171 181 186 177 165 175 190 193 210 225 230 220 238 221 236 261 266 283 250 252 278 200 264 254 262 269 266 265
332 332 309 263 221 225 209 184 158 144 202 153 138 168 160 188 152 136 174 189 188 204 229 252 192 206 211 219 216 63 228 249 257 256 247 245 209 273 267 268 249 243 278 292 285
335 330 285 234 220 205 178 143 128 223 167 148 165 160 167 164 161 159 178 175 176 172 216 225 231 216 204 215 224 218 171 253 235 208 249 324 210 247 273 215 236 280 296 304 297
336 329 277 217 201 196 174 131 183 118 132 157 147 146 164 154 171 164 168 189 212 192 126 218 225 204 183 214 219 205 212 229 258 239 294 153 247 242 251 261 257 275 295 318 327
336 340 172 203 206 177 152 176 133 154 136 140 134 141 130 168 152 163 184 199 199 194 195 183 256 191 197 205 203 175 215 233 274 271 273 253 262 279 268 257 250 260 282 311 336
350 339 168 143 172 153 132 86 18 117 127 143 133 188 160 168 164 180 182 204 209 201 204 190 264 211 183 222 228 221 277 196 203 256 249 251 255 254 270 306 236 213 280 319 337
344 326 166 184 155 155 128 94 107 134 125 129 133 142 154 165 175 180 176 193 207 194 193 169 195 145 148 210 205 195 220 217 274 244 259 269 263 306 304 273 235 247 307 323 329
342 8 89 130 99 95 123 215 123 127 63 105 103 104 145 160 175 186 201 238 178 155 190 195 204 244 233 240 232 228 232 223 234 238 240 253 261 223 247 239 214 297 317 341 334
330 32 143 125 98 95 157 84 74 121 94 109 103 86 144 155 159 187 190 206 176 183 176 164 213 279 246 182 219 237 241 237 237 263 243 248 262 127 212 321 261 266 317 323 330
352 86 58 20 92 133 127 103 118 58 71 73 102 95 122 145 164 173 212 219 193 205 185 182 213 230 260 281 332 257 258 247 229 244 255 243 261 267 272 275 271 263 291 308 316
354 68 125 140 158 132 90 117 135 119 71 70 96 136 151 148 159 204 201 210 171 202 193 192 251 238 255 271 277 269 270 272 244 238 239 261 259 270 277 284 274 277 296 307 303
22 11 359 90 153 145 132 159 145 97 133 126 111 168 173 161 193 191 209 211 225 186 197 210 269 280 283 277 268 277 275 277 263 247 244 256 267 274 282 279 274 271 295 280 301
359 353 306 179 136 171 160 151 159 125 185 60 177 177 195 232 250 244 236 258 244 183 199 207 220 291 272 318 309 278 276 306 268 228 238 234 246 264 282 289 342 311 306 283 282